Flag for Germany Weather past 2 weeks in Erding, Bavaria, Germany

Now
61 °F

Partly sunny.


Feels Like: 61 °F
Forecast: 49 / 68 °F
Wind: 2 mph from North

Location: Erding Airport

Current Time: Aug 20, 2014 at 2:40:34 PM

Latest Report: Aug 20, 2014 at 1:20 PM


Visibility: N/A

Pressure: 30.04 "Hg

Humidity: 68%

Dew point: 50 °F

Location of ErdingLocation

Historic Weather in Erding — Graph

°F

Erding temperature yesterday

Maximum temperature yesterday: 68 °F (at 2:20 PM)
Minimum temperature yesterday: 52 °F (at 3:20 AM)
Average temperature yesterday: 60 °F

Past Weeks' High & Low Weather Summary

 TemperatureHumidityPressure
High72 °F (Aug 18, 3:20 PM)100% (Aug 19, 5:20 AM)30.07 "Hg (Aug 19, 5:20 AM)
Low52 °F (Aug 19, 3:20 AM)50% (Aug 18, 2:20 PM)29.86 "Hg (Aug 18, 1:20 PM)
Average61 °F72%29.94 "Hg
* Reported Aug 18 8:20 AM — Aug 20 1:20 PM, Erding, Weather by CustomWeather, © 2014

Note: Actual official high and low records may vary slightly from our data, if they occured in-between our weather recording intervals... More about our weather records

Advertising

Erding weather history for previous 24 hours

 ConditionsComfort  
Time TempWeatherWind HumidityBarometerVisibility
1:20 PM
Aug 20
61 °FPartly sunny.2 mph68%30.04 "HgN/A
12:20 PM63 °FBroken clouds.3 mph64%30.04 "HgN/A
11:20 AM61 °FPartly sunny.1 mph68%30.07 "HgN/A
10:20 AM61 °FCool.2 mph63%30.07 "HgN/A
9:20 AM59 °FCool.2 mph72%30.04 "HgN/A
8:20 AM57 °FPartly sunny.2 mph82%30.04 "HgN/A
7:20 AM57 °FPartly sunny.2 mph82%30.04 "HgN/A
6:20 AM55 °FCool.1 mph88%30.04 "HgN/A
5:20 AM57 °FCool.2 mph77%30.04 "HgN/A
4:20 AM55 °FCool.3 mph82%30.01 "HgN/A
3:20 AM57 °FCool.5 mph77%30.01 "HgN/A
2:20 AM59 °FCool.3 mph72%30.01 "HgN/A
1:20 AM57 °FCool.2 mph82%30.01 "HgN/A
12:20 AM57 °FCool.2 mph77%30.01 "HgN/A
11:20 PM
Aug 19
57 °FCool.6 mph82%29.98 "HgN/A
10:20 PM61 °FCool.3 mph72%29.98 "HgN/A
9:20 PM61 °FCool.3 mph72%29.95 "HgN/A
8:20 PM64 °FMild.5 mph64%29.92 "HgN/A
7:20 PM66 °FMild.5 mph60%29.92 "HgN/A
6:20 PM68 °FMild.8 mph53%29.89 "HgN/A
5:20 PM68 °FMild.7 mph53%29.89 "HgN/A
4:20 PM68 °FScattered clouds.7 mph60%29.89 "HgN/A
3:20 PM68 °FScattered clouds.6 mph56%29.92 "HgN/A
2:20 PM68 °FScattered clouds.5 mph60%29.92 "HgN/A
Weather by CustomWeather, © 2014

See weather overviewHow to use our weather pages